,,,PA_Meas_PMT16A,,PR_Meas_QMR101_102,,RH_Meas_QMH101,,SR_Meas_QMS101,,TA_Meas_QMH101,,GenWind,,GenWind,
date,time,status,PA,status,PR,status,RH,status,SR,status,TA,status,DirAvg,status,SpdAvg,
2009-03-13, 00:00:04,VALID,1005,VALID,0,VALID,94.5066,VALID,0,VALID,23.9566,VALID,345,VALID,0.214844,
2009-03-13, 00:01:04,VALID,1005.01,VALID,0,VALID,94.4837,VALID,0,VALID,23.9371,VALID,345,VALID,0.528516,
2009-03-13, 00:02:04,VALID,1004.98,VALID,0,VALID,94.4913,VALID,0,VALID,23.9177,VALID,345,VALID,0.396484,
2009-03-13, 00:03:04,VALID,1004.95,VALID,0,VALID,94.4989,VALID,0,VALID,23.9177,VALID,346,VALID,0.562891,
2009-03-13, 00:04:04,VALID,1004.94,VALID,0,VALID,94.5371,VALID,0,VALID,23.9371,VALID,348,VALID,0.398828,
2009-03-13, 00:05:04,VALID,1004.92,VALID,0,VALID,94.5447,VALID,0,VALID,23.9566,VALID,348,VALID,0.285547,
2009-03-13, 00:06:04,VALID,1004.91,VALID,0,VALID,94.5523,VALID,0,VALID,23.9371,VALID,348,VALID,0.184766,
2009-03-13, 00:07:04,VALID,1004.93,VALID,0,VALID,94.5218,VALID,0,VALID,23.9371,VALID,348,VALID,0.176953,
2009-03-13, 00:08:04,VALID,1004.9,VALID,0,VALID,94.4989,VALID,0,VALID,23.9371,VALID,348,VALID,0.410937,
2009-03-13, 00:09:04,VALID,1004.89,VALID,0,VALID,94.4684,VALID,0,VALID,23.9371,VALID,348,VALID,0.351953,
2009-03-13, 00:10:04,VALID,1004.87,VALID,0,VALID,94.4913,VALID,0,VALID,23.9371,VALID,348,VALID,0.194141,
2009-03-13, 00:11:04,VALID,1004.89,VALID,0,VALID,94.4913,VALID,0,VALID,23.9389,VALID,348,VALID,0.141406,
2009-03-13, 00:12:04,VALID,1004.84,VALID,0,VALID,94.4989,VALID,0,VALID,23.9584,VALID,348,VALID,0,
2009-03-13, 00:13:04,VALID,1004.87,VALID,0,VALID,94.4913,VALID,0,VALID,23.9389,VALID,348,VALID,0,
2009-03-13, 00:14:04,VALID,1004.82,VALID,0,VALID,94.5142,VALID,0,VALID,23.9371,VALID,348,VALID,0,
2009-03-13, 00:15:04,VALID,1004.83,VALID,0,VALID,94.5142,VALID,0,VALID,23.9584,VALID,348,VALID,0,
2009-03-13, 00:16:04,VALID,1004.81,VALID,0,VALID,94.5218,VALID,0,VALID,23.9371,VALID,348,VALID,0,
2009-03-13, 00:17:04,VALID,1004.81,VALID,0,VALID,94.4989,VALID,0,VALID,23.9371,VALID,348,VALID,0,
2009-03-13, 00:18:04,VALID,1004.83,VALID,0,VALID,94.5066,VALID,0,VALID,23.9371,VALID,348,VALID,0.425,
2009-03-13, 00:19:04,VALID,1004.79,VALID,0,VALID,94.5066,VALID,0,VALID,23.9371,VALID,348,VALID,0.391797,
2009-03-13, 00:20:04,VALID,1004.74,VALID,0,VALID,94.4913,VALID,0,VALID,23.9177,VALID,348,VALID,0.417188,
2009-03-13, 00:21:04,VALID,1004.74,VALID,0,VALID,94.4837,VALID,0,VALID,23.9177,VALID,348,VALID,0.08125,
2009-03-13, 00:22:04,VALID,1004.72,VALID,0,VALID,94.4913,VALID,0,VALID,23.9389,VALID,348,VALID,0.239063,
2009-03-13, 00:23:04,VALID,1004.7,VALID,0,VALID,94.4684,VALID,0,VALID,23.9389,VALID,348,VALID,0.222656,
2009-03-13, 00:24:04,VALID,1004.72,VALID,0,VALID,94.4761,VALID,0,VALID,23.8982,VALID,348,VALID,0.423438,
2009-03-13, 00:25:04,VALID,1004.67,VALID,0,VALID,94.4532,VALID,0,VALID,23.8982,VALID,348,VALID,0.442969,
2009-03-13, 00:26:04,VALID,1004.66,VALID,0,VALID,94.4684,VALID,0.100563,VALID,23.8964,VALID,348,VALID,0.512891,
2009-03-13, 00:27:04,VALID,1004.65,VALID,0,VALID,94.4684,VALID,0,VALID,23.9177,VALID,348,VALID,0.448438,
2009-03-13, 00:28:04,VALID,1004.6,VALID,0,VALID,94.4913,VALID,0,VALID,23.8982,VALID,348,VALID,0.337109,
2009-03-13, 00:29:04,VALID,1004.55,VALID,0,VALID,94.5218,VALID,0,VALID,23.8982,VALID,348,VALID,0.439844,
2009-03-13, 00:30:04,VALID,1004.52,VALID,0,VALID,94.5371,VALID,0,VALID,23.8964,VALID,348,VALID,0.464844,
2009-03-13, 00:31:04,VALID,1004.49,VALID,0,VALID,94.5066,VALID,0,VALID,23.8769,VALID,348,VALID,0.444922,
2009-03-13, 00:32:04,VALID,1004.49,VALID,0,VALID,94.4989,VALID,0,VALID,23.8982,VALID,348,VALID,0.505078,
2009-03-13, 00:33:04,VALID,1004.46,VALID,0,VALID,94.5142,VALID,0,VALID,23.8787,VALID,348,VALID,0.395312,
2009-03-13, 00:34:04,VALID,1004.45,VALID,0,VALID,94.5066,VALID,0,VALID,23.8575,VALID,348,VALID,0.297266,
2009-03-13, 00:35:04,VALID,1004.44,VALID,0,VALID,94.5295,VALID,0,VALID,23.8787,VALID,348,VALID,0.313672,
2009-03-13, 00:36:04,VALID,1004.43,VALID,0,VALID,94.5447,VALID,0,VALID,23.8982,VALID,348,VALID,0.340234,
2009-03-13, 00:37:04,VALID,1004.44,VALID,0,VALID,94.5752,VALID,0,VALID,23.8982,VALID,348,VALID,0.294922,
2009-03-13, 00:38:04,VALID,1004.47,VALID,0,VALID,94.6286,VALID,0,VALID,23.9389,VALID,348,VALID,0.379297,
2009-03-13, 00:39:04,VALID,1004.46,VALID,0,VALID,94.6668,VALID,0,VALID,23.9566,VALID,348,VALID,0.428516,
2009-03-13, 00:40:04,VALID,1004.46,VALID,0,VALID,94.6591,VALID,0,VALID,23.9761,VALID,348,VALID,0.291797,
2009-03-13, 00:41:04,VALID,1004.47,VALID,0,VALID,94.6439,VALID,0,VALID,23.9937,VALID,348,VALID,0.282813,
2009-03-13, 00:42:04,VALID,1004.45,VALID,0,VALID,94.5905,VALID,0,VALID,23.9937,VALID,348,VALID,0.158594,
2009-03-13, 00:43:04,VALID,1004.45,VALID,0,VALID,94.5523,VALID,0,VALID,23.9955,VALID,348,VALID,0.340234,
2009-03-13, 00:44:04,VALID,1004.44,VALID,0,VALID,94.5981,VALID,0,VALID,24.015,VALID,348,VALID,0.0703125,
2009-03-13, 00:45:04,VALID,1004.43,VALID,0,VALID,94.6134,VALID,0,VALID,24.0345,VALID,348,VALID,0,
2009-03-13, 00:46:04,VALID,1004.4,VALID,0,VALID,94.5829,VALID,0,VALID,24.0752,VALID,348,VALID,0.150781,
2009-03-13, 00:47:04,VALID,1004.4,VALID,0,VALID,94.56,VALID,0,VALID,24.0539,VALID,348,VALID,0,
2009-03-13, 00:48:04,VALID,1004.43,VALID,0,VALID,94.5752,VALID,0,VALID,24.0539,VALID,346,VALID,0.0863281,
2009-03-13, 00:49:04,VALID,1004.47,VALID,0,VALID,94.6134,VALID,0,VALID,24.0929,VALID,286,VALID,0.01875,
2009-03-13, 00:50:04,VALID,1004.49,VALID,0,VALID,94.6515,VALID,0,VALID,24.1105,VALID,286,VALID,0.00429688,
2009-03-13, 00:51:04,VALID,1004.5,VALID,0.5,VALID,94.621,VALID,0,VALID,24.1707,VALID,286,VALID,0.464063,
2009-03-13, 00:52:04,VALID,1004.47,VALID,0,VALID,94.5905,VALID,0,VALID,24.1902,VALID,229,VALID,0.68125,
2009-03-13, 00:53:04,VALID,1004.43,VALID,0,VALID,94.6286,VALID,0,VALID,24.2681,VALID,307,VALID,0.792969,
2009-03-13, 00:54:04,VALID,1004.34,VALID,0,VALID,94.5981,VALID,0,VALID,24.3052,VALID,322,VALID,0.844531,
2009-03-13, 00:55:04,VALID,1004.36,VALID,0,VALID,94.5218,VALID,0,VALID,24.3849,VALID,268,VALID,0.589063,
2009-03-13, 00:56:04,VALID,1004.38,VALID,0,VALID,94.4379,VALID,0,VALID,24.4043,VALID,235,VALID,0.552734,
2009-03-13, 00:57:04,VALID,1004.38,VALID,0,VALID,94.3692,VALID,0,VALID,24.4238,VALID,287,VALID,1.0293,
2009-03-13, 00:58:04,VALID,1004.41,VALID,0,VALID,94.3082,VALID,0,VALID,24.4433,VALID,298,VALID,0.489844,
2009-03-13, 00:59:04,VALID,1004.33,VALID,0,VALID,94.2472,VALID,0,VALID,24.4628,VALID,231,VALID,0.125781,
2009-03-13, 01:00:04,VALID,1004.33,VALID,0,VALID,94.1938,VALID,0,VALID,24.4414,VALID,231,VALID,0,
2009-03-13, 01:01:04,VALID,1004.28,VALID,0,VALID,94.148,VALID,0,VALID,24.4628,VALID,231,VALID,0,
2009-03-13, 01:02:04,VALID,1004.21,VALID,0.5,VALID,94.1328,VALID,0,VALID,24.4414,VALID,233,VALID,0,
2009-03-13, 01:03:04,VALID,1004.18,VALID,0,VALID,94.0717,VALID,0,VALID,24.422,VALID,264,VALID,0.470313,
2009-03-13, 01:04:04,VALID,1004.12,VALID,0,VALID,94.0641,VALID,0,VALID,24.4238,VALID,265,VALID,0.260547,
2009-03-13, 01:05:04,VALID,1004.09,VALID,0,VALID,94.0565,VALID,0,VALID,24.4433,VALID,279,VALID,0.6875,
2009-03-13, 01:06:04,VALID,1004.06,VALID,0,VALID,94.0488,VALID,0,VALID,24.4238,VALID,293,VALID,0.245703,
2009-03-13, 01:07:04,VALID,1004.01,VALID,0,VALID,94.0107,VALID,0,VALID,24.4043,VALID,308,VALID,0.260547,
2009-03-13, 01:08:04,VALID,1004.02,VALID,0,VALID,94.0031,VALID,0,VALID,24.4043,VALID,335,VALID,0.455469,
2009-03-13, 01:09:04,VALID,1003.98,VALID,0,VALID,93.9725,VALID,0,VALID,24.3636,VALID,335,VALID,0.328906,
2009-03-13, 01:10:04,VALID,1003.95,VALID,0,VALID,93.9878,VALID,0,VALID,24.3849,VALID,335,VALID,0.31875,
2009-03-13, 01:11:04,VALID,1003.95,VALID,0,VALID,93.9649,VALID,0,VALID,24.3654,VALID,343,VALID,0.545703,
2009-03-13, 01:12:04,VALID,1003.96,VALID,0,VALID,93.942,VALID,0,VALID,24.3246,VALID,351,VALID,0.473437,
2009-03-13, 01:13:04,VALID,1003.93,VALID,0,VALID,93.9725,VALID,0,VALID,24.307,VALID,351,VALID,0.371094,
2009-03-13, 01:14:04,VALID,1003.93,VALID,0,VALID,93.9573,VALID,0,VALID,24.2875,VALID,351,VALID,0.551172,
2009-03-13, 01:15:04,VALID,1003.9,VALID,0,VALID,93.9954,VALID,0,VALID,24.2486,VALID,351,VALID,0.344922,
2009-03-13, 01:16:04,VALID,1003.89,VALID,0,VALID,93.9649,VALID,0,VALID,24.1884,VALID,351,VALID,0.367578,
2009-03-13, 01:17:04,VALID,1003.88,VALID,0,VALID,93.9954,VALID,0,VALID,24.1707,VALID,350,VALID,0.567187,
2009-03-13, 01:18:04,VALID,1003.89,VALID,0,VALID,94.0183,VALID,0,VALID,24.1513,VALID,351,VALID,0.713281,
2009-03-13, 01:19:04,VALID,1003.89,VALID,0,VALID,94.0412,VALID,0,VALID,24.1513,VALID,338,VALID,0.536328,
2009-03-13, 01:20:04,VALID,1003.92,VALID,0,VALID,94.0488,VALID,0,VALID,24.1318,VALID,343,VALID,0.423047,
2009-03-13, 01:21:04,VALID,1003.93,VALID,0,VALID,94.1099,VALID,0,VALID,24.1318,VALID,343,VALID,0.0148437,
2009-03-13, 01:22:04,VALID,1003.99,VALID,0,VALID,94.1099,VALID,0.100563,VALID,24.1513,VALID,360,VALID,0.090625,
2009-03-13, 01:23:04,VALID,1004.01,VALID,0,VALID,94.1022,VALID,0,VALID,24.1105,VALID,360,VALID,0.192578,
2009-03-13, 01:24:04,VALID,1003.99,VALID,0,VALID,94.1099,VALID,0.100563,VALID,24.1318,VALID,319,VALID,0.400781,
2009-03-13, 01:25:04,VALID,1004,VALID,0,VALID,94.1022,VALID,0,VALID,24.1123,VALID,301,VALID,0.163672,
2009-03-13, 01:26:04,VALID,1004.01,VALID,0,VALID,94.0641,VALID,0,VALID,24.0947,VALID,310,VALID,0.480859,
2009-03-13, 01:27:04,VALID,1004.06,VALID,0,VALID,94.0641,VALID,0,VALID,24.0734,VALID,322,VALID,0.425,
2009-03-13, 01:28:04,VALID,1004.04,VALID,0,VALID,94.0259,VALID,0,VALID,24.0734,VALID,325,VALID,0.503125,
2009-03-13, 01:29:04,VALID,1004.05,VALID,0,VALID,94.0107,VALID,0,VALID,24.0734,VALID,288,VALID,0.441797,
2009-03-13, 01:30:04,VALID,1004.05,VALID,0,VALID,94.0259,VALID,0,VALID,24.0539,VALID,288,VALID,0.0226563,
2009-03-13, 01:31:04,VALID,1004.03,VALID,0,VALID,93.9344,VALID,0,VALID,24.0947,VALID,294,VALID,0.95,
2009-03-13, 01:32:04,VALID,1004.05,VALID,0,VALID,93.9191,VALID,0,VALID,24.0345,VALID,294,VALID,0.0441406,
2009-03-13, 01:33:04,VALID,1004.06,VALID,0,VALID,93.8963,VALID,0,VALID,24.0345,VALID,343,VALID,0.243359,
2009-03-13, 01:34:04,VALID,1004.08,VALID,0,VALID,93.8505,VALID,0,VALID,24.0752,VALID,328,VALID,0.163281,
2009-03-13, 01:35:04,VALID,1004.08,VALID,0,VALID,93.8352,VALID,0,VALID,24.0539,VALID,324,VALID,0.234766,
2009-03-13, 01:36:04,VALID,1004.06,VALID,0,VALID,93.7818,VALID,0,VALID,24.0557,VALID,324,VALID,0.145313,
2009-03-13, 01:37:04,VALID,1004.08,VALID,0,VALID,93.7589,VALID,0,VALID,24.0557,VALID,324,VALID,0,
2009-03-13, 01:38:04,VALID,1004.07,VALID,0,VALID,93.7589,VALID,0,VALID,24.0345,VALID,323,VALID,0.341406,
2009-03-13, 01:39:04,VALID,1004.08,VALID,0,VALID,93.7513,VALID,0,VALID,24.0363,VALID,322,VALID,0.0917969,
2009-03-13, 01:40:04,VALID,1004.08,VALID,0,VALID,93.6674,VALID,0,VALID,24.015,VALID,285,VALID,0.329297,
2009-03-13, 01:41:04,VALID,1004.05,VALID,0,VALID,93.6674,VALID,0,VALID,24.0326,VALID,288,VALID,0.244141,
2009-03-13, 01:42:04,VALID,1004.04,VALID,0,VALID,93.5072,VALID,0.100563,VALID,24.0132,VALID,278,VALID,0.751562,
2009-03-13, 01:43:04,VALID,1004.04,VALID,0,VALID,93.4614,VALID,0,VALID,24.0326,VALID,301,VALID,0.260156,
2009-03-13, 01:44:04,VALID,1004,VALID,0,VALID,93.3928,VALID,0,VALID,24.0716,VALID,301,VALID,0.342578,
2009-03-13, 01:45:04,VALID,1003.97,VALID,0,VALID,93.2859,VALID,0,VALID,24.0716,VALID,305,VALID,0.123047,
2009-03-13, 01:46:04,VALID,1003.96,VALID,0,VALID,93.1944,VALID,0,VALID,24.1123,VALID,262,VALID,0.469531,
2009-03-13, 01:47:04,VALID,1003.92,VALID,0,VALID,93.1181,VALID,0.100563,VALID,24.091,VALID,284,VALID,0.323047,
2009-03-13, 01:48:04,VALID,1003.89,VALID,0,VALID,93.0571,VALID,0,VALID,24.091,VALID,338,VALID,0.182422,
2009-03-13, 01:49:04,VALID,1003.85,VALID,0,VALID,92.9503,VALID,0,VALID,24.1105,VALID,287,VALID,0.219922,
2009-03-13, 01:50:04,VALID,1003.85,VALID,0,VALID,92.9121,VALID,0,VALID,24.1318,VALID,289,VALID,0.18125,
2009-03-13, 01:51:04,VALID,1003.8,VALID,0,VALID,92.8969,VALID,0,VALID,24.1513,VALID,327,VALID,0.236719,
2009-03-13, 01:52:04,VALID,1003.75,VALID,0,VALID,92.8664,VALID,0,VALID,24.1707,VALID,327,VALID,0.105078,
2009-03-13, 01:53:04,VALID,1003.72,VALID,0,VALID,92.8053,VALID,0,VALID,24.1707,VALID,351,VALID,0.363672,
2009-03-13, 01:54:04,VALID,1003.73,VALID,0,VALID,92.7977,VALID,0,VALID,24.1902,VALID,53,VALID,0.478125,
2009-03-13, 01:55:04,VALID,1003.7,VALID,0,VALID,92.7977,VALID,0.100563,VALID,24.2078,VALID,273,VALID,0.0757812,
2009-03-13, 01:56:04,VALID,1003.64,VALID,0,VALID,92.7519,VALID,0,VALID,24.2273,VALID,273,VALID,0,
2009-03-13, 01:57:04,VALID,1003.61,VALID,0,VALID,92.6756,VALID,0,VALID,24.2273,VALID,274,VALID,0.0816406,
2009-03-13, 01:58:04,VALID,1003.58,VALID,0,VALID,92.668,VALID,0,VALID,24.2486,VALID,274,VALID,0.101953,
2009-03-13, 01:59:04,VALID,1003.57,VALID,0,VALID,92.6528,VALID,0,VALID,24.2681,VALID,274,VALID,0,
2009-03-13, 02:00:04,VALID,1003.59,VALID,0,VALID,92.5917,VALID,0,VALID,24.2681,VALID,274,VALID,0,
2009-03-13, 02:01:04,VALID,1003.55,VALID,0,VALID,92.5993,VALID,0,VALID,24.2662,VALID,274,VALID,0,
2009-03-13, 02:02:04,VALID,1003.57,VALID,0,VALID,92.6451,VALID,0,VALID,24.2875,VALID,337,VALID,0.503516,
2009-03-13, 02:03:04,VALID,1003.58,VALID,0,VALID,92.6604,VALID,0,VALID,24.307,VALID,313,VALID,0.0640625,
2009-03-13, 02:04:04,VALID,1003.59,VALID,0,VALID,92.6604,VALID,0,VALID,24.307,VALID,297,VALID,0.255859,
2009-03-13, 02:05:04,VALID,1003.6,VALID,0,VALID,92.6756,VALID,0,VALID,24.3265,VALID,338,VALID,0.447656,
2009-03-13, 02:06:04,VALID,1003.6,VALID,0,VALID,92.6833,VALID,0,VALID,24.3246,VALID,275,VALID,0.690234,
2009-03-13, 02:07:04,VALID,1003.63,VALID,0,VALID,92.6451,VALID,0,VALID,24.4043,VALID,343,VALID,0.257813,
2009-03-13, 02:08:04,VALID,1003.64,VALID,0,VALID,92.5993,VALID,0,VALID,24.4238,VALID,344,VALID,0.733594,
2009-03-13, 02:09:04,VALID,1003.63,VALID,0,VALID,92.5536,VALID,0,VALID,24.4628,VALID,316,VALID,0.0554687,
2009-03-13, 02:10:04,VALID,1003.64,VALID,0,VALID,92.4544,VALID,0,VALID,24.4628,VALID,278,VALID,0.336719,
2009-03-13, 02:11:04,VALID,1003.66,VALID,0,VALID,92.3476,VALID,0.100563,VALID,24.4804,VALID,326,VALID,0.132422,
2009-03-13, 02:12:04,VALID,1003.64,VALID,0,VALID,92.2942,VALID,0,VALID,24.5017,VALID,327,VALID,0.0613281,
2009-03-13, 02:13:04,VALID,1003.63,VALID,0,VALID,92.2637,VALID,0,VALID,24.4998,VALID,327,VALID,0.157422,
2009-03-13, 02:14:04,VALID,1003.63,VALID,0,VALID,92.2103,VALID,0,VALID,24.4998,VALID,280,VALID,0.477734,
2009-03-13, 02:15:04,VALID,1003.64,VALID,0,VALID,92.1798,VALID,0,VALID,24.5193,VALID,324,VALID,0.234766,
2009-03-13, 02:16:04,VALID,1003.65,VALID,0,VALID,92.0806,VALID,0,VALID,24.5388,VALID,250,VALID,0.507031,
2009-03-13, 02:17:04,VALID,1003.63,VALID,0,VALID,91.928,VALID,0.100563,VALID,24.5601,VALID,352,VALID,0.998047,
2009-03-13, 02:18:04,VALID,1003.64,VALID,0,VALID,91.7831,VALID,0,VALID,24.5777,VALID,286,VALID,0.912109,
2009-03-13, 02:19:04,VALID,1003.64,VALID,0,VALID,91.5618,VALID,0.100563,VALID,24.6185,VALID,356,VALID,2.08984,
2009-03-13, 02:20:04,VALID,1003.64,VALID,0,VALID,91.4016,VALID,0,VALID,24.5972,VALID,347,VALID,1.07148,
2009-03-13, 02:21:04,VALID,1003.58,VALID,0,VALID,91.1422,VALID,0,VALID,24.6166,VALID,294,VALID,0.772656,
2009-03-13, 02:22:04,VALID,1003.57,VALID,0,VALID,91.0888,VALID,0,VALID,24.5953,VALID,346,VALID,0.792578,
2009-03-13, 02:23:04,VALID,1003.56,VALID,0,VALID,91.0812,VALID,0.100563,VALID,24.6166,VALID,349,VALID,1.04883,
2009-03-13, 02:24:04,VALID,1003.58,VALID,0,VALID,91.0431,VALID,0.100563,VALID,24.5582,VALID,58,VALID,0.698438,
2009-03-13, 02:25:04,VALID,1003.55,VALID,0,VALID,90.9057,VALID,0,VALID,24.4998,VALID,358,VALID,1.85781,
2009-03-13, 02:26:04,VALID,1003.55,VALID,0,VALID,90.86,VALID,0,VALID,24.5035,VALID,353,VALID,1.63047,
2009-03-13, 02:27:04,VALID,1003.52,VALID,0,VALID,90.8447,VALID,0,VALID,24.4646,VALID,355,VALID,1.44492,
2009-03-13, 02:28:04,VALID,1003.51,VALID,0,VALID,90.7074,VALID,0,VALID,24.4043,VALID,350,VALID,2.27695,
2009-03-13, 02:29:04,VALID,1003.49,VALID,0,VALID,90.7608,VALID,0,VALID,24.3654,VALID,316,VALID,1.19805,
2009-03-13, 02:30:04,VALID,1003.48,VALID,0,VALID,90.6845,VALID,0,VALID,24.3459,VALID,355,VALID,1.28789,
2009-03-13, 02:31:04,VALID,1003.42,VALID,0,VALID,90.7303,VALID,0,VALID,24.3478,VALID,354,VALID,1.23164,
2009-03-13, 02:32:04,VALID,1003.42,VALID,0,VALID,90.7913,VALID,0,VALID,24.307,VALID,355,VALID,0.994531,
2009-03-13, 02:33:04,VALID,1003.37,VALID,0,VALID,90.8523,VALID,0,VALID,24.2894,VALID,354,VALID,1.05391,
2009-03-13, 02:34:04,VALID,1003.34,VALID,0,VALID,90.9439,VALID,0,VALID,24.2699,VALID,348,VALID,0.714453,
2009-03-13, 02:35:04,VALID,1003.29,VALID,0,VALID,90.9668,VALID,0,VALID,24.2291,VALID,1,VALID,1.49102,
2009-03-13, 02:36:04,VALID,1003.27,VALID,0,VALID,91.0431,VALID,0,VALID,24.2097,VALID,348,VALID,1.18086,
2009-03-13, 02:37:04,VALID,1003.26,VALID,0,VALID,91.1728,VALID,0,VALID,24.2097,VALID,239,VALID,0.302734,
2009-03-13, 02:38:04,VALID,1003.22,VALID,0,VALID,91.2109,VALID,0,VALID,24.1707,VALID,342,VALID,1.10781,
2009-03-13, 02:39:04,VALID,1003.17,VALID,0,VALID,91.249,VALID,0,VALID,24.1513,VALID,6,VALID,0.490234,
2009-03-13, 02:40:04,VALID,1003.13,VALID,0,VALID,91.3253,VALID,0,VALID,24.1318,VALID,348,VALID,0.759375,
2009-03-13, 02:41:04,VALID,1003.13,VALID,0,VALID,91.3558,VALID,0,VALID,24.1318,VALID,244,VALID,0.153906,
2009-03-13, 02:42:04,VALID,1003.08,VALID,0,VALID,91.394,VALID,0,VALID,24.091,VALID,342,VALID,0.992188,
2009-03-13, 02:43:04,VALID,1003.1,VALID,0,VALID,91.4321,VALID,0,VALID,24.091,VALID,10,VALID,0.478906,
2009-03-13, 02:44:04,VALID,1003.1,VALID,0,VALID,91.5313,VALID,0,VALID,24.0521,VALID,20,VALID,0.0550781,
2009-03-13, 02:45:04,VALID,1003.1,VALID,0,VALID,91.5542,VALID,0,VALID,24.0326,VALID,343,VALID,0.651953,
2009-03-13, 02:46:04,VALID,1003.09,VALID,0,VALID,91.6229,VALID,0,VALID,24.0326,VALID,345,VALID,0.404297,
2009-03-13, 02:47:04,VALID,1003.03,VALID,0,VALID,91.6457,VALID,0.100563,VALID,24.0132,VALID,353,VALID,1.09766,
2009-03-13, 02:48:04,VALID,1002.99,VALID,0,VALID,91.661,VALID,0,VALID,23.9937,VALID,329,VALID,1.03945,
2009-03-13, 02:49:04,VALID,1002.97,VALID,0,VALID,91.6686,VALID,0,VALID,24.015,VALID,358,VALID,1.01797,
2009-03-13, 02:50:04,VALID,1002.93,VALID,0,VALID,91.7144,VALID,0,VALID,23.9955,VALID,349,VALID,0.692969,
2009-03-13, 02:51:04,VALID,1002.92,VALID,0,VALID,91.7297,VALID,0.100563,VALID,23.9742,VALID,348,VALID,0.921094,
2009-03-13, 02:52:04,VALID,1002.89,VALID,0,VALID,91.7449,VALID,0,VALID,23.9761,VALID,344,VALID,0.604297,
2009-03-13, 02:53:04,VALID,1002.87,VALID,0,VALID,91.7983,VALID,0.100563,VALID,23.9742,VALID,335,VALID,0.197266,
2009-03-13, 02:54:04,VALID,1002.85,VALID,0,VALID,91.8899,VALID,0,VALID,23.9548,VALID,336,VALID,0.2125,
2009-03-13, 02:55:04,VALID,1002.82,VALID,0,VALID,91.9433,VALID,0.100563,VALID,23.9548,VALID,321,VALID,0.174609,
2009-03-13, 02:56:04,VALID,1002.77,VALID,0,VALID,91.9433,VALID,0,VALID,23.914,VALID,334,VALID,0.365625,
2009-03-13, 02:57:04,VALID,1002.75,VALID,0,VALID,91.9356,VALID,0,VALID,23.9353,VALID,349,VALID,0.943359,
2009-03-13, 02:58:04,VALID,1002.71,VALID,0,VALID,91.9738,VALID,0.100563,VALID,23.9353,VALID,346,VALID,0.182812,
2009-03-13, 02:59:04,VALID,1002.71,VALID,0,VALID,91.9585,VALID,0.100563,VALID,23.914,VALID,327,VALID,0.480859,
2009-03-13, 03:00:04,VALID,1002.71,VALID,0,VALID,91.9662,VALID,0,VALID,23.9371,VALID,284,VALID,0.545703,
2009-03-13, 03:01:04,VALID,1002.68,VALID,0,VALID,91.9662,VALID,0,VALID,23.9566,VALID,18,VALID,0.801562,
2009-03-13, 03:02:04,VALID,1002.66,VALID,0,VALID,91.9509,VALID,0,VALID,23.9353,VALID,354,VALID,0.622656,
2009-03-13, 03:03:04,VALID,1002.65,VALID,0,VALID,91.928,VALID,0.100563,VALID,23.9353,VALID,295,VALID,0.488672,
2009-03-13, 03:04:04,VALID,1002.63,VALID,0,VALID,91.9051,VALID,0.100563,VALID,23.9159,VALID,302,VALID,0.375,
2009-03-13, 03:05:04,VALID,1002.62,VALID,0,VALID,91.928,VALID,0.100563,VALID,23.9353,VALID,318,VALID,0.35625,
2009-03-13, 03:06:04,VALID,1002.59,VALID,0,VALID,91.9509,VALID,0.100563,VALID,23.9353,VALID,317,VALID,0.00273437,
2009-03-13, 03:07:04,VALID,1002.6,VALID,0,VALID,91.9128,VALID,0.100563,VALID,23.914,VALID,258,VALID,0.386328,
2009-03-13, 03:08:04,VALID,1002.57,VALID,0,VALID,91.8822,VALID,0.100563,VALID,23.9353,VALID,342,VALID,0.208984,
2009-03-13, 03:09:04,VALID,1002.55,VALID,0,VALID,91.9128,VALID,0,VALID,23.9159,VALID,254,VALID,0.486328,
2009-03-13, 03:10:04,VALID,1002.54,VALID,0,VALID,91.8975,VALID,0,VALID,23.9566,VALID,254,VALID,0.185156,
2009-03-13, 03:11:04,VALID,1002.56,VALID,0,VALID,91.8365,VALID,0,VALID,23.9353,VALID,253,VALID,0.0820313,
2009-03-13, 03:12:04,VALID,1002.57,VALID,0,VALID,91.8517,VALID,0,VALID,23.9353,VALID,254,VALID,0.125,
2009-03-13, 03:13:04,VALID,1002.63,VALID,0,VALID,91.7525,VALID,0,VALID,23.9159,VALID,273,VALID,0.438281,
2009-03-13, 03:14:04,VALID,1002.63,VALID,0,VALID,91.7068,VALID,0.100563,VALID,23.9159,VALID,325,VALID,0.161719,
2009-03-13, 03:15:04,VALID,1002.62,VALID,0,VALID,91.6381,VALID,0,VALID,23.9159,VALID,296,VALID,0.270312,
2009-03-13, 03:16:04,VALID,1002.63,VALID,0,VALID,91.5847,VALID,0,VALID,23.9353,VALID,306,VALID,0.292969,
2009-03-13, 03:17:04,VALID,1002.64,VALID,0,VALID,91.5771,VALID,0.100563,VALID,23.9353,VALID,309,VALID,0.128125,
2009-03-13, 03:18:04,VALID,1002.66,VALID,0,VALID,91.5542,VALID,0,VALID,23.9159,VALID,309,VALID,0.236719,
2009-03-13, 03:19:04,VALID,1002.65,VALID,0,VALID,91.5313,VALID,0,VALID,23.9353,VALID,309,VALID,0.126172,
2009-03-13, 03:20:04,VALID,1002.68,VALID,0,VALID,91.5237,VALID,0,VALID,23.9566,VALID,309,VALID,0.182031,
2009-03-13, 03:21:04,VALID,1002.73,VALID,0,VALID,91.5313,VALID,0,VALID,23.9159,VALID,280,VALID,0.511328,
2009-03-13, 03:22:04,VALID,1002.7,VALID,0,VALID,91.4855,VALID,0,VALID,23.9566,VALID,280,VALID,0,
2009-03-13, 03:23:04,VALID,1002.73,VALID,0,VALID,91.5466,VALID,0.100563,VALID,23.9548,VALID,279,VALID,0.00429688,
2009-03-13, 03:24:04,VALID,1002.77,VALID,0,VALID,91.4245,VALID,0.100563,VALID,23.9566,VALID,310,VALID,0.476953,
2009-03-13, 03:25:04,VALID,1002.79,VALID,0,VALID,91.394,VALID,0,VALID,23.9566,VALID,5,VALID,0.187891,
2009-03-13, 03:26:04,VALID,1002.81,VALID,0,VALID,91.3711,VALID,0,VALID,23.9566,VALID,287,VALID,0.535937,
2009-03-13, 03:27:04,VALID,1002.87,VALID,0,VALID,91.2262,VALID,0,VALID,23.9566,VALID,284,VALID,1.05313,
2009-03-13, 03:28:04,VALID,1002.89,VALID,0,VALID,91.2109,VALID,0,VALID,23.9973,VALID,274,VALID,0.447656,
2009-03-13, 03:29:04,VALID,1002.91,VALID,0,VALID,91.0888,VALID,0,VALID,23.9955,VALID,295,VALID,1.05977,
2009-03-13, 03:30:04,VALID,1002.91,VALID,0,VALID,91.0278,VALID,0,VALID,23.9955,VALID,286,VALID,0.305078,
2009-03-13, 03:31:04,VALID,1002.93,VALID,0,VALID,90.8829,VALID,0,VALID,23.9955,VALID,285,VALID,1.20391,
2009-03-13, 03:32:04,VALID,1002.97,VALID,0,VALID,91.0125,VALID,0,VALID,24.015,VALID,252,VALID,0.404687,
2009-03-13, 03:33:04,VALID,1002.98,VALID,0,VALID,90.9744,VALID,0,VALID,24.0345,VALID,233,VALID,0.453125,
2009-03-13, 03:34:04,VALID,1003,VALID,0,VALID,90.7074,VALID,0,VALID,24.0363,VALID,292,VALID,1.95352,
2009-03-13, 03:35:04,VALID,1003.01,VALID,0,VALID,90.5396,VALID,0,VALID,24.0539,VALID,272,VALID,0.753516,
2009-03-13, 03:36:04,VALID,1003.02,VALID,0,VALID,90.5243,VALID,0,VALID,24.0734,VALID,256,VALID,0.382031,
2009-03-13, 03:37:04,VALID,1003.02,VALID,0,VALID,90.3641,VALID,0,VALID,24.0929,VALID,287,VALID,1.13672,
2009-03-13, 03:38:04,VALID,1003,VALID,0,VALID,90.5548,VALID,0,VALID,24.1318,VALID,289,VALID,1.73711,
2009-03-13, 03:39:04,VALID,1002.99,VALID,0,VALID,90.509,VALID,0,VALID,24.1902,VALID,293,VALID,1.21094,
2009-03-13, 03:40:04,VALID,1002.99,VALID,0,VALID,90.6692,VALID,0,VALID,24.2894,VALID,255,VALID,0.755078,
2009-03-13, 03:41:04,VALID,1002.97,VALID,0,VALID,91.0202,VALID,0.100563,VALID,24.3246,VALID,249,VALID,0.914453,
2009-03-13, 03:42:04,VALID,1002.93,VALID,0,VALID,90.8142,VALID,0,VALID,24.383,VALID,298,VALID,1.0793,
2009-03-13, 03:43:04,VALID,1002.94,VALID,0,VALID,90.921,VALID,0,VALID,24.4025,VALID,261,VALID,0.558203,